User: anonymous   Login
Location: Broad Creek
(39.7000°N, 76.2570°W)
Time: 05:55:50
(UTC-04:00)
Language:

ATLAS 5 CENTAUR R/B - Orbit

View from above orbital plane
View from above orbital plane
View from above satellite
View from above satellite

Ground track
Ground track

The orbit data is extracted from the following two-line orbital elements,

1 31702U 07027B   16172.95308514 0.00000000  00000-0  00000-0 0    04
2 31702  63.3667 195.1263 0226000   1.2425 358.7575 14.18485828    06
Epoch (UTC): 20 June 2016 22:52:26
Eccentricity: 0.0226000
inclination: 63.3667°
perigee height: 667 km
apogee height: 993 km
right ascension of ascending node: 195.1263°
argument of perigee: 1.2425°
revolutions per day: 14.18485828
mean anomaly at epoch: 358.7575°
orbit number at epoch: 0

The dashed part of the orbit path shows where the satellite is in the earth's shadow,  

DLR